Lapse_Rate
6.7 6.5 6.1 6.0 5.6 5.6 5.9 5.8 5.5 5.6 5.9 6.1 6.1 6.1 6.1 6.0 5.9 5.7 5.6 5.7 5.7 5.8 5.9 6.0 5.8 5.9 5.9 5.8 5.7 5.6 5.5 5.4 5.5 5.3 4.9 5.1 5.1 5.0 5.0 4.8 5.2 5.0 5.2
7.0 6.3 6.2 6.0 5.5 5.7 5.8 5.8 5.7 5.8 6.1 6.2 6.2 6.1 5.9 5.8 5.8 5.7 5.7 5.7 5.7 6.0 6.1 5.9 5.8 5.5 5.7 5.8 5.8 5.6 5.5 5.7 5.3 5.2 5.2 5.2 5.1 4.9 4.6 5.1 4.9 5.0 5.3
6.8 6.4 6.2 5.8 5.6 5.7 5.7 5.7 5.7 6.0 5.9 6.0 6.2 6.2 5.9 5.5 5.6 5.7 5.8 5.8 5.8 6.0 5.8 5.8 5.8 5.8 5.8 5.7 5.6 5.7 5.5 5.4 5.2 5.1 5.1 5.0 5.0 4.7 4.8 4.9 5.0 5.2 5.3
6.6 6.5 6.2 5.9 5.7 5.8 5.7 5.6 5.7 5.8 5.9 5.8 5.9 6.0 6.0 5.8 5.9 5.7 5.6 5.8 5.9 5.9 5.8 5.8 6.0 5.8 5.6 5.7 5.5 5.4 5.5 5.2 5.1 5.2 5.2 5.3 5.3 4.9 5.0 5.1 5.1 5.4 5.6
6.6 6.5 6.3 6.0 5.6 5.8 5.8 5.6 5.6 5.5 5.6 5.7 5.7 5.8 5.8 5.7 5.7 5.8 5.9 5.9 5.8 5.8 5.7 5.6 5.6 5.6 5.7 5.5 5.3 5.2 5.3 5.0 4.8 5.2 5.4 5.1 4.9 4.9 5.1 5.2 5.3 5.7 6.0
6.6 6.5 6.3 6.2 5.8 5.8 6.0 5.8 5.5 5.5 5.7 5.5 5.5 5.5 5.6 5.5 5.4 5.7 5.9 5.8 5.8 5.7 5.6 5.6 5.7 5.4 5.3 5.5 5.4 5.1 5.1 5.2 4.9 4.8 5.0 4.9 4.9 5.0 5.2 5.5 6.2 6.1 5.8
6.6 6.6 6.5 6.4 6.0 6.0 5.8 6.0 5.9 5.8 5.8 5.5 5.5 5.5 5.4 5.3 5.3 5.4 5.6 5.7 5.7 5.8 5.8 5.8 5.7 5.7 5.7 5.3 5.1 4.9 4.8 4.8 4.8 5.0 5.0 5.1 5.4 5.6 6.0 6.5 6.0 5.8 5.6
6.7 6.8 6.7 6.7 6.4 6.2 6.2 6.2 6.0 5.7 5.6 5.5 5.3 5.4 5.4 5.5 5.1 5.1 5.2 5.4 5.5 5.5 5.5 5.6 5.5 5.4 5.0 5.1 4.9 5.0 5.3 5.3 5.2 5.4 5.4 5.9 6.2 6.1 5.9 5.7 5.6 5.6 5.7
6.9 6.9 6.8 6.7 6.7 6.5 6.4 6.3 6.2 5.9 5.8 5.8 5.6 5.4 5.4 5.4 5.1 5.0 5.1 5.3 5.3 5.6 5.6 5.2 5.5 5.4 5.3 5.1 5.2 5.3 5.4 5.6 5.9 6.2 6.3 5.9 5.7 5.5 5.5 5.6 5.7 5.7 5.6
7.1 7.0 6.8 6.7 6.7 6.5 6.5 6.6 6.3 6.3 6.2 6.2 6.0 5.9 5.5 5.6 5.6 5.4 5.1 5.2 5.2 5.5 5.4 5.3 5.2 5.4 5.4 5.4 5.5 5.5 6.2 6.1 5.9 5.9 5.8 5.6 5.6 5.6 5.5 5.6 5.6 5.6 5.7
7.4 7.3 6.9 6.7 6.6 6.6 6.4 6.4 6.6 6.5 6.3 6.3 6.4 6.2 5.9 5.7 5.8 5.7 5.6 5.5 5.6 5.7 5.6 5.6 5.6 5.6 5.4 5.6 5.9 5.9 5.7 5.8 5.7 5.7 5.8 5.7 5.7 5.6 5.6 5.7 5.8 5.8 5.8
7.5 7.6 7.5 7.1 6.8 6.7 6.5 6.5 6.6 6.6 6.6 6.5 6.5 6.4 6.3 6.0 5.9 5.7 5.5 5.5 5.5 5.5 5.6 5.8 5.7 5.8 5.8 5.9 5.9 5.9 5.7 5.7 5.6 5.6 5.6 5.8 6.0 6.1 6.0 5.9 5.8 5.7 5.7
7.6 7.7 7.8 7.6 7.3 7.1 6.9 6.6 6.7 6.8 6.7 6.7 6.6 6.7 6.7 6.6 6.5 6.3 6.3 6.2 6.0 5.9 5.8 5.9 6.1 6.2 6.3 6.2 6.1 6.0 5.9 5.7 5.7 5.8 6.0 6.0 5.9 5.8 5.7 5.8 5.8 5.6 5.5
7.7 7.7 7.8 7.8 7.6 7.5 7.4 7.2 6.9 6.8 6.8 6.9 6.8 6.8 6.9 6.8 6.8 6.8 6.8 6.8 6.8 6.8 6.7 6.6 6.5 6.5 6.4 6.3 6.2 6.1 6.0 6.0 6.0 5.9 5.8 5.8 5.8 5.9 5.8 5.8 5.6 5.6 5.6
7.6 7.6 7.7 7.7 7.6 7.6 7.5 7.4 7.3 7.1 6.9 6.7 6.7 6.8 6.9 6.9 6.8 6.7 6.7 6.7 6.7 6.6 6.6 6.6 6.5 6.4 6.3 6.2 6.2 6.2 6.2 6.1 6.0 5.8 5.8 5.8 5.8 5.8 5.7 5.6 5.6 5.5 5.5
7.5 7.6 7.6 7.7 7.7 7.6 7.7 7.5 7.5 7.4 7.3 7.2 7.3 7.0 6.8 6.8 6.8 6.8 6.8 6.8 6.8 6.6 6.6 6.6 6.5 6.6 6.6 6.6 6.4 6.3 6.2 6.2 6.0 5.9 5.7 5.6 5.6 5.5 5.5 5.4 5.4 5.4 5.5
7.6 7.5 7.5 7.6 7.7 7.7 7.7 7.8 7.6 7.5 7.5 7.5 7.5 7.4 7.3 7.2 7.1 7.1 7.1 7.0 6.8 6.8 6.9 6.7 6.6 6.6 6.5 6.5 6.4 6.3 6.2 6.0 5.8 5.7 5.6 5.7 5.7 5.7 5.7 5.6 5.5 5.5 5.7
7.5 7.5 7.5 7.5 7.7 7.6 7.6 7.7 7.7 7.7 7.5 7.4 7.4 7.4 7.4 7.4 7.3 7.3 7.3 7.3 7.4 7.3 7.1 7.0 7.0 6.9 6.7 6.5 6.3 6.1 6.0 6.0 6.1 5.9 5.9 5.9 5.8 5.8 5.9 5.8 5.8 5.7 5.5
7.5 7.5 7.6 7.7 7.6 7.6 7.6 7.6 7.7 7.8 7.7 7.6 7.5 7.5 7.4 7.3 7.3 7.4 7.5 7.6 7.6 7.6 7.4 7.3 7.1 7.0 6.9 6.8 6.5 6.2 6.2 6.3 6.2 5.9 6.0 6.0 5.9 5.9 5.9 5.8 5.7 5.6 5.4
7.7 7.5 7.5 7.4 7.4 7.5 7.7 7.8 7.9 7.9 7.9 7.8 7.8 7.6 7.4 7.4 7.6 7.5 7.5 7.5 7.5 7.5 7.5 7.4 7.2 7.1 7.0 6.9 6.9 6.8 6.6 6.6 6.5 6.4 6.2 6.1 5.9 5.8 5.7 5.6 5.4 5.3 5.2
8.0 7.9 7.8 7.7 7.6 7.6 7.6 7.8 7.8 7.8 7.8 7.8 7.6 7.5 7.4 7.5 7.4 7.6 7.7 7.7 7.6 7.5 7.4 7.3 7.3 7.2 7.2 7.0 6.8 6.7 6.7 6.5 6.2 5.9 5.9 5.7 5.8 5.4 5.1 5.2 5.1 5.6 4.5
8.1 8.1 7.9 7.9 7.8 7.8 7.8 7.8 7.8 7.8 7.7 7.7 7.6 7.5 7.5 7.8 7.8 7.8 7.8 7.8 7.8 7.6 7.5 7.4 7.3 7.2 7.1 7.0 6.9 6.8 6.6 6.4 6.1 5.8 5.8 5.7 5.5 5.3 5.2 4.9 4.8 5.4 5.3
8.1 8.1 7.9 7.8 7.8 7.7 7.7 7.8 7.9 7.9 7.9 7.8 7.6 7.4 7.4 7.7 7.8 7.9 8.0 8.0 7.9 7.8 7.7 7.5 7.4 7.4 7.3 7.0 6.6 6.5 6.5 6.2 5.9 5.9 5.8 5.5 5.1 4.8 4.9 4.9 5.1 5.3 4.8
7.8 7.9 7.9 7.9 7.7 7.6 7.6 7.7 7.7 7.7 7.7 7.8 7.8 7.7 7.5 7.5 7.6 7.7 7.7 7.7 7.8 7.9 7.8 7.7 7.7 7.5 7.3 7.1 6.8 6.4 6.3 6.0 5.4 5.7 5.8 5.9 5.7 5.2 4.9 4.9 5.1 5.3 4.8
7.6 7.7 7.7 7.7 7.6 7.5 7.5 7.5 7.5 7.6 7.6 7.6 7.6 7.6 7.6 7.6 7.6 7.5 7.4 7.4 7.4 7.3 7.3 7.3 7.3 7.3 7.0 6.8 6.5 6.4 6.3 6.2 6.2 6.0 6.0 5.8 5.3 5.0 4.9 4.8 5.0 4.7 3.9
7.6 7.8 7.9 7.8 7.7 7.5 7.3 7.2 7.3 7.2 7.3 7.3 7.3 7.4 7.5 7.4 7.3 7.3 7.5 7.3 7.1 7.1 7.0 6.7 6.5 6.5 6.6 6.6 6.5 6.4 6.3 6.2 6.0 6.3 5.8 5.7 5.6 5.4 5.2 5.0 5.0 4.0 3.9
Wind_Speed
5 3 2 3 2 3 2 2 3 2 3 4 5 5 6 7 7 7 5 5 6 7 6 7 7 6 5 5 5 5 6 5 8 3 9 11 12 11 11 15 16 14 11
5 3 4 3 2 4 3 4 3 3 4 5 5 6 7 8 6 8 5 5 6 7 8 8 7 5 6 6 5 7 6 6 9 9 11 9 11 9 9 8 8 9 9
5 5 4 3 3 3 3 4 4 3 5 6 7 8 8 6 6 6 7 7 7 8 8 8 9 9 7 6 6 7 6 6 6 9 6 8 7 7 5 4 3 5 5
5 5 5 4 3 3 3 4 4 4 5 5 7 8 10 7 8 9 6 7 7 6 7 7 7 7 9 10 7 8 8 8 8 8 9 8 4 4 4 3 3 2 2
6 5 5 4 4 3 4 4 4 4 5 6 8 8 9 9 5 8 7 6 7 7 7 7 7 7 10 8 7 8 9 7 7 7 5 6 3 5 6 3 3 2 2
6 6 5 5 4 4 3 5 4 5 4 5 6 8 8 5 11 10 8 7 7 7 7 7 9 12 12 14 14 13 8 8 8 5 3 6 4 4 3 4 3 2 2
6 6 6 5 5 4 4 5 4 4 4 5 5 6 6 7 12 12 10 6 7 6 7 7 7 7 11 11 11 10 8 9 5 4 8 6 5 6 6 3 3 2 3
6 6 6 5 6 5 4 4 4 3 3 3 4 5 4 4 10 11 11 8 7 8 7 9 9 9 8 9 6 5 4 4 3 2 4 6 4 8 6 4 4 6 4
8 7 6 6 7 7 5 5 2 4 3 3 3 5 7 5 8 11 9 7 8 7 8 9 9 8 9 10 5 6 6 5 11 11 10 9 11 16 13 6 5 6 2
9 9 7 7 8 7 6 6 3 2 4 4 5 4 6 7 6 10 9 6 8 6 6 6 9 8 8 7 5 6 6 4 7 6 6 10 10 9 6 4 6 5 4
9 8 7 7 7 7 6 4 5 5 5 5 6 3 4 5 5 8 9 6 6 6 6 5 3 9 8 6 6 4 3 7 7 7 6 5 6 6 6 9 5 5 4
11 10 9 7 6 6 7 4 5 6 6 4 5 4 3 2 4 5 9 8 8 6 6 4 4 7 7 7 5 8 11 9 6 6 6 6 6 6 7 13 16 17 15
11 10 10 9 6 7 7 7 4 4 5 4 4 4 3 2 2 4 5 10 8 5 4 6 9 7 7 6 3 9 10 6 6 6 7 4 5 7 14 13 16 19 20
11 10 9 10 7 6 4 6 6 5 4 5 4 4 3 2 3 2 3 4 7 6 8 5 5 6 3 6 5 5 5 6 6 7 6 6 8 8 7 7 8 7 8
11 9 9 8 10 8 6 6 7 6 8 7 5 6 6 4 4 6 7 5 4 6 7 3 2 2 3 3 3 4 4 5 6 5 8 9 8 8 7 6 7 4 5
11 8 8 8 7 8 8 4 7 3 10 9 12 8 5 4 10 12 10 7 12 14 3 3 4 4 5 6 6 6 5 6 6 8 8 9 9 9 8 6 4 7 8
14 12 8 8 9 9 8 8 8 1 4 9 9 10 12 12 12 13 11 9 12 8 3 4 5 6 6 6 7 6 5 5 6 8 8 8 8 8 9 7 7 8 7
13 15 11 9 9 9 9 9 8 8 8 5 7 8 9 7 10 10 15 12 4 4 3 5 7 6 6 7 6 6 5 6 6 6 6 7 8 9 9 9 8 9 9
12 11 11 10 9 9 8 8 8 8 8 6 3 2 4 7 5 10 16 6 8 8 8 7 6 7 7 7 7 7 7 8 7 8 8 8 8 9 9 9 8 9 9
13 15 13 10 9 9 8 9 8 8 8 8 7 9 6 5 6 6 7 8 7 7 8 8 7 6 7 8 8 8 7 7 7 8 8 9 9 9 10 10 8 9 7
11 11 12 10 10 11 10 10 9 9 9 9 10 9 12 10 10 9 9 9 9 9 8 8 8 8 8 8 7 8 8 8 8 9 9 8 8 8 8 8 6 6 4
11 12 12 11 10 10 11 10 10 10 10 10 9 7 12 10 9 9 9 10 9 9 8 9 9 9 9 10 10 9 10 9 9 9 9 9 8 9 9 7 8 6 7
10 12 12 11 11 10 8 10 10 11 11 10 9 7 8 9 10 10 10 10 9 9 9 9 9 8 8 9 14 11 11 12 12 12 13 12 11 10 9 9 10 7 5
12 13 13 12 10 10 11 11 10 11 11 10 10 9 9 9 10 12 11 9 9 10 9 9 10 12 10 10 14 18 18 18 19 18 17 13 11 13 12 11 8 10 7
10 11 11 12 11 11 11 11 11 11 11 10 10 10 9 9 10 10 9 8 9 9 11 11 10 14 16 17 16 20 18 24 24 26 22 17 17 19 15 12 10 7 7
9 10 9 8 9 10 10 10 10 10 10 10 10 10 10 10 10 9 8 8 8 9 11 9 11 15 13 15 18 21 28 29 29 31 26 18 15 13 12 13 14 9 10
Wind_Direction
163 188 174 95 62 67 68 64 51 59 136 148 138 122 111 114 123 125 129 129 114 116 115 121 107 120 118 112 105 114 133 125 122 110 123 127 124 120 113 113 128 139 157
171 168 133 113 88 65 64 57 59 69 125 130 128 121 123 122 125 135 125 133 131 127 116 115 116 114 109 107 102 103 112 125 126 126 130 134 129 121 118 122 129 144 160
161 151 127 133 118 77 79 68 56 94 106 106 110 118 114 112 116 124 125 121 116 120 126 138 140 131 127 124 108 106 110 110 114 125 122 130 121 124 114 93 102 123 162
155 145 139 170 135 120 99 93 75 102 109 114 117 118 123 121 126 132 112 106 100 102 108 117 123 126 142 138 122 117 114 117 116 111 122 121 120 102 104 120 123 129 133
155 149 163 154 132 123 97 90 87 101 107 110 118 115 119 125 120 124 115 105 106 100 97 105 108 111 100 105 118 124 119 116 121 125 104 117 112 143 157 156 115 119 80
163 159 155 137 135 129 106 98 91 89 97 110 116 124 120 116 123 115 118 116 111 110 105 102 112 103 94 94 88 82 89 112 113 119 113 138 134 139 129 152 129 123 134
166 155 156 147 136 140 127 95 90 90 112 107 114 113 122 123 128 125 119 118 119 119 121 120 106 105 107 106 88 85 87 91 102 120 144 146 142 170 154 130 129 129 118
170 158 155 148 136 129 116 106 103 86 103 117 114 116 113 127 135 135 124 121 121 121 126 124 124 124 122 118 109 95 83 110 108 113 150 153 158 156 145 149 140 112 103
173 167 164 154 146 142 136 128 93 105 97 104 110 120 110 109 131 131 118 119 111 106 99 119 128 130 132 121 107 99 103 82 61 91 117 129 142 152 144 126 126 126 93
178 178 164 159 153 155 151 140 119 100 104 112 100 92 113 124 135 127 121 125 120 115 104 102 109 133 139 125 117 141 121 133 125 99 79 66 84 100 102 78 150 137 134
169 159 156 160 159 156 146 137 131 115 103 95 97 78 104 127 148 142 128 136 137 133 135 137 152 154 158 154 142 156 142 129 110 111 103 91 82 84 79 81 89 129 125
158 162 163 157 159 149 144 123 127 127 118 115 112 93 66 80 116 159 137 126 141 142 152 146 141 160 171 165 154 122 116 112 124 118 113 112 111 98 80 81 81 79 72
160 165 165 157 155 156 149 143 131 137 138 144 138 129 125 91 83 114 132 136 128 124 141 139 137 153 155 144 159 141 138 135 134 133 139 134 124 119 111 98 91 84 73
168 167 159 161 153 154 152 158 152 157 153 155 157 156 153 150 146 139 128 123 101 89 99 91 95 104 98 117 110 156 158 158 158 157 151 127 133 140 135 131 114 102 87
170 166 166 167 166 165 172 173 177 187 176 174 185 171 164 184 205 177 163 166 157 130 115 106 118 125 143 151 130 154 159 160 156 144 150 149 150 146 142 138 127 104 115
166 169 173 166 171 170 168 151 48 186 195 195 166 169 204 197 169 177 184 146 136 146 108 160 183 189 185 177 173 173 179 174 164 155 154 158 161 162 153 151 135 139 135
171 173 170 171 174 172 176 179 184 58 171 197 199 196 181 185 179 184 177 142 158 156 176 185 197 195 198 193 192 189 184 189 163 169 166 165 162 158 153 158 146 138 130
171 165 170 179 182 180 184 189 191 189 194 196 217 204 217 209 193 178 137 119 136 234 203 198 206 199 201 201 198 195 182 170 174 165 165 165 163 159 164 164 155 148 146
169 173 175 176 181 180 181 185 190 193 197 194 150 190 204 182 166 149 166 189 190 200 210 218 209 200 200 199 200 197 188 188 181 175 172 164 168 170 169 161 154 150 141
179 171 172 173 173 176 181 186 189 194 195 197 197 208 156 139 188 191 197 205 205 207 204 212 211 202 197 196 195 194 189 174 178 186 184 179 171 170 168 164 163 164 158
176 170 170 172 179 184 185 192 194 197 202 204 212 198 181 191 204 203 202 205 211 212 210 210 207 205 202 200 196 192 193 191 189 186 182 182 172 169 167 155 143 130 142
174 171 175 185 183 186 192 190 192 197 204 209 217 202 180 204 209 208 209 210 210 211 208 208 213 210 205 199 193 192 194 190 183 181 180 172 169 159 149 141 125 126 134
171 172 181 186 191 184 180 192 196 199 205 208 209 199 186 206 214 214 211 208 205 208 206 205 212 214 207 204 201 195 190 194 196 182 172 167 158 141 135 134 133 132 144
174 176 182 186 186 186 191 196 201 204 207 205 200 200 197 207 213 216 215 210 206 207 204 205 210 211 207 205 201 197 194 184 188 183 168 157 147 137 137 135 143 153 138
184 178 183 185 187 191 192 196 199 200 201 206 213 209 205 199 208 217 217 209 207 206 208 207 209 213 208 200 196 193 188 165 159 159 156 148 149 147 143 137 145 146 117
184 176 184 186 186 190 190 194 200 199 202 207 212 213 209 211 209 208 218 211 208 212 214 210 213 209 202 199 191 169 158 155 149 151 147 143 143 141 138 143 149 141 152